Location: Agadir Irigdalene
(31.2522°N, 8.7797°W)
Time: 06:17:14
(UTC+00:00)

ATLAS 3B R/B - Pass Details

Date: 01 December 2020
Orbit: 1013 x 1182 km, 63.8° (Epoch: 08 January)

Event Time Altitude Azimuth Distance (km) Brightness Sun altitude
Rises 19:17:38 0° 180° (S) 3,750 5.7 -22.1°
Reaches altitude 10° 19:20:33 10° 170° (S) 2,791 4.9 -22.7°
Enters shadow 19:24:49 28° 132° (SE) 1,780 3.5 -23.6°
